AirNav   Duncan Aviation - Near you to keep you flying
 
 1140 users online  

WN09 Bucky's Airpark
Plainfield, Wisconsin, USA

GOING TO PLAINFIELD?


FAA INFORMATION EFFECTIVE 07 OCTOBER 2021

Location

FAA Identifier: WN09
Lat/Long: 44-09-52.0000N 089-30-29.0000W
44-09.866667N 089-30.483333W
44.1644444,-89.5080556
(estimated)
Elevation: 1145 ft. / 349 m (estimated)
From city: 3 miles S of PLAINFIELD, WI
Time zone: UTC -5 (UTC -6 during Standard Time)
Zip code: 54966

Airport Operations

Airport use: Private use. Permission required prior to landing
Activation date: 12/2003
Control tower: no
ARTCC: CHICAGO CENTER
FSS: GREEN BAY FLIGHT SERVICE STATION
Attendance: UNATNDD
Wind indicator: yes
Segmented circle: no

Airport Communications

WX AWOS-3PT at Y50 (11 nm SE): 119.475 (920-787-0515)
WX ASOS at ISW (18 nm NW): 126.575 (715-421-2120)

Nearby radio navigation aids

VOR radial/distance  VOR name  Freq  Var
DLLr014/38.4DELLS VORTAC117.0003E

Airport Services

Runway Information

Runway 18/36

Dimensions: 1650 x 90 ft. / 503 x 27 m
Surface: turf
RUNWAY 18  RUNWAY 36
Traffic pattern: leftleft
Obstructions: none40 ft. pline, marked, 216 ft. from runway

Airport Ownership and Management from official FAA records

Ownership: Privately-owned
Owner: TOM BUCHBERGER
N5160 5TH DRIVE
PLAINFIELD, WI 54966
Phone 715-335-8210
Manager: TOM BUCHBERGER
N 5160 5TH DRIVE
PLAINFIELD, WI 54966
Phone 715-335-8210

Airport Operational Statistics

Aircraft based on the field: 2
Single engine airplanes: 2
    

Additional Remarks

RY 18 IS FOR ARR USE ONLY AND 36 IS FOR DEP ONLY.
FOR CD CTC CHICAGO ARTCC AT 630-906-8921.

Instrument Procedures

There are no published instrument procedures at WN09.

Some nearby airports with instrument procedures:

Y50 - Wautoma Municipal Airport (11 nm SE)
63C - Adams County Airport-Legion Field (17 nm SW)
KISW - Alexander Field South Wood County Airport (18 nm NW)
KSTE - Stevens Point Municipal Airport (23 nm N)
KPCZ - Waupaca Municipal Airport (23 nm NE)
 
Loc | Ops | Rwys | IFR | FBO | Links
Com | Nav | Svcs | Stats | Notes
Area around WN09 (Bucky's Airpark)
 
Road maps at: MapQuest Bing Google
 
Aerial photo
No photo
 
Sectional chart

 
Airport distance calculator
Flying to Bucky's Airpark? Find the distance to fly.

From to WN09

Sunrise and sunset
Times for 19-Oct-2021
 Local
(UTC-5)
 Zulu
(UTC)
Morning civil twilight06:5011:50
Sunrise07:1912:19
Sunset18:0723:07
Evening civil twilight18:3723:37

Current date and time
Zulu (UTC)  20-Oct-2021 01:17:59
Local (UTC-5)  19-Oct-2021 20:17:59
 
METAR
KY50 
11nm SE 
200056Z AUTO 00000KT CLR 13/08 A2999 RMK AO2 SLP158 T01280083 PWINO $
KISW 
19nm NW 
200054Z AUTO 18003KT 10SM FEW100 15/08 A2999 RMK AO2 SLP159 T01500078
KSTE 
22nm N 
200055Z AUTO 00000KT 10SM CLR 12/07 A2999 RMK AO2 T01150068
TAF
KVOK 
36nm SW 
191700Z 1917/2023 20010KT 9999 FEW200 QNH2994INS BECMG 2015/2016 12009KT 9999 FEW030 BKN045 BKN065 QNH2998INS BECMG 2019/2020 08009KT 9999 BKN023 OVC035 QNH2995INS BECMG 2020/2021 09010G15KT 9000 -SHRA BR BKN023 OVC035 QNH2988INS TX23/1920Z TN08/2012Z
KCWA 
37nm N 
191738Z 1918/2018 20009KT P6SM SCT110 FM200100 14003KT P6SM SCT110 TEMPO 2003/2007 BKN090 FM201300 06007KT P6SM BKN070 FM201500 07008KT P6SM -SHRA BKN035 BKN070
KATW 
43nm E 
191954Z 1920/2018 21010G17KT P6SM SCT110 FM200100 22005KT P6SM SCT100 TEMPO 2004/2008 BKN080 FM201400 03005KT P6SM SCT100 FM201700 07007KT P6SM VCSH BKN090
NOTAMs
Click for the latest NOTAMs
NOTAMs are issued by the DoD/FAA and will open in a separate window not controlled by AirNav.

 

 
 

Would you like to see your business listed on this page?

 If your business provides an interesting product or service to pilots, flight crews, aircraft, or users of the Bucky's Airpark, you should consider listing it here.  To start the listing process, click on the button below
 
Add a business
 

Other Pages about Bucky's Airpark

Update a link
 
Copyright © AirNav, LLC. All rights reserved. Privacy Policy  Contact